Location: Catstown
(52.4386°N, 7.2633°W)
Time: 12:20:55
(UTC+00:00)

Cosmos 2082 Rocket - Pass Details

Date: 18 September 2020
Orbit: 834 x 853 km, 71.0° (Epoch: 23 October)

Event Time Altitude Azimuth Distance (km) Brightness Sun altitude
Rises 22:20:55 0° 328° (NNW) 3,394 6.5 -30.4°
Reaches altitude 10° 22:23:22 10° 327° (NNW) 2,457 5.5 -30.6°
Enters shadow 22:28:04 62° 308° (NW) 942 2.5 -31.0°
